Regional Weather Roundup
Issued by NWS Kansas City/Pleasant Hill, MO

Home | Current Version | Previous Version | Text Only | Print | Product List | Glossary On
Versions: 1 2 3 4 5 6 7 8 9 10 11 12 13 14 15 16 17 18 19 20 21 22 23 24 25 26 27
000
ASUS43 KEAX 221510
RWREAX

WEATHER ROUNDUP FOR EASTERN KANSAS AND NORTHWEST MISSOURI
NATIONAL WEATHER SERVICE KANSAS CITY/PLEASANT HILL MO
900 AM CST WED NOV 22 2017

KSZ040-057-103>105-MOZ028-029-037-043-221600-
...KANSAS CITY METROPOLITAN AREA...

CITY           SKY/WX    TMP DP  RH WIND       PRES   REMARKS
K.C. INTL      CLOUDY    25  16  68 CALM      30.44R
K.C. DOWNTOWN  CLOUDY    27  14  58 N3        30.46R
LEES SUMMIT    SUNNY     27  16  63 CALM      30.44R
OLATHE - IXD   FLURRIES  24  16  71 VRB3      30.44R
OLATHE - OJC   CLOUDY    25  15  66 NE5       30.43R WCI  19
LAWRENCE       CLOUDY    25  17  72 CALM      30.45S

$$

MOZ001>008-011>017-020>025-030>033-038>040-044>046-053-054-221600-
...NORTHERN AND CENTRAL MISSOURI...

CITY           SKY/WX    TMP DP  RH WIND       PRES   REMARKS
ST. JOSEPH     CLOUDY    23  15  71 CALM      30.46R
MOSBY          CLOUDY    27  18  69 CALM      30.46R
WARRENSBURG    SUNNY     27  18  69 CALM      30.45R
WHITEMAN AFB   SUNNY     26  16  66 NE5       30.40R WCI  20
CLINTON        SUNNY     25  18  74 MISG      30.45R
SEDALIA        SUNNY     28  18  66 NE6       30.45R WCI  22
WARSAW         NOT AVBL
CHILLICOTHE      N/A     25  16  68 CALM      30.45R
KIRKSVILLE     SUNNY     25  16  68 NE5       30.42R WCI  19

$$

MOZ041-047>049-056>058-063>065-088>090-097-221600-
...EASTERN AND SOUTHERN MISSOURI...

CITY           SKY/WX    TMP DP  RH WIND       PRES   REMARKS
ST. LOUIS INTL MOSUNNY   28  19  69 NW5       30.43S WCI  23
SPIRIT OF STL  SUNNY     30  19  63 CALM      30.44S
COLUMBIA       SUNNY     27  15  61 N5        30.42S WCI  22
JEFFERSON CITY SUNNY     28  16  60 N3        30.45S
ROLLA          SUNNY     27  17  66 NE7       30.41R WCI  19
OSAGE BEACH    SUNNY     27  18  69 E7        30.43S WCI  19
SPRINGFIELD    SUNNY     29  19  66 NE6       30.38S WCI  23
BRANSON        SUNNY     28  18  64 CALM      30.38F
JOPLIN         SUNNY     28  20  71 N6        30.42F WCI  22
WEST PLAINS    MOSUNNY   31  18  58 N12       30.39R WCI  22

$$

IAZ060-094-KSZ022-034>040-054-083-096-NEZ052-066-093-221600-
...KANSAS...SOUTHEAST NEBRASKA AND IOWA...

CITY           SKY/WX    TMP DP  RH WIND       PRES   REMARKS
TOPEKA         CLOUDY    26  17  68 CALM      30.45R
MANHATTAN      CLOUDY    22  15  75 CALM      30.44R
EMPORIA        CLOUDY    23  15  71 CALM      30.42S
CHANUTE        MOSUNNY   28  17  63 CALM      30.44S
WICHITA        CLOUDY    27  16  63 W3        30.44R
OMAHA          CLOUDY    21  14  74 S7        30.39F WCI  12
LINCOLN        CLOUDY    21  15  78 CALM      30.40S
FALLS CITY     CLOUDY    21  16  81 CALM      30.42F
DES MOINES     CLOUDY    21  13  71 SW5       30.41R WCI  15

$$





USA.gov is the U.S. government's official web portal to all federal, state and local government web resources and services.